TimeEDT,TemperatureF,Dew PointF,Humidity,Sea Level PressureIn,VisibilityMPH,Wind Direction,Wind SpeedMPH,Gust SpeedMPH,PrecipitationIn,Events,Conditions,WindDirDegrees,DateUTC
12:53 AM,73.0,66.9,81,30.07,10.0,ENE,5.8,-,N/A,,Clear,70,2013-04-03 04:53:00
1:53 AM,73.0,66.0,79,30.06,10.0,NE,3.5,-,N/A,,Clear,50,2013-04-03 05:53:00
2:53 AM,73.0,66.0,79,30.04,10.0,NE,3.5,-,N/A,,Clear,50,2013-04-03 06:53:00
3:53 AM,73.0,66.0,79,30.03,10.0,ENE,4.6,-,N/A,,Clear,70,2013-04-03 07:53:00
4:53 AM,73.9,68.0,82,30.01,10.0,ESE,8.1,-,N/A,,Clear,110,2013-04-03 08:53:00
5:53 AM,75.0,69.1,82,30.02,10.0,ESE,10.4,-,N/A,,Clear,110,2013-04-03 09:53:00
6:53 AM,75.0,69.1,82,30.02,10.0,ESE,11.5,-,N/A,,Clear,110,2013-04-03 10:53:00
7:53 AM,75.0,69.1,82,30.02,10.0,ESE,10.4,-,N/A,,Clear,110,2013-04-03 11:53:00
8:53 AM,75.9,68.0,76,30.03,10.0,ESE,15.0,-,N/A,,Clear,120,2013-04-03 12:53:00
9:53 AM,78.1,70.0,76,30.04,10.0,SE,10.4,-,N/A,,Clear,130,2013-04-03 13:53:00
10:53 AM,78.1,71.1,79,30.04,10.0,SE,11.5,-,N/A,,Clear,130,2013-04-03 14:53:00
11:53 AM,80.1,72.0,76,30.03,10.0,SE,12.7,-,N/A,,Clear,130,2013-04-03 15:53:00
12:53 PM,80.1,71.1,74,30.01,10.0,ESE,12.7,-,N/A,,Clear,120,2013-04-03 16:53:00
1:53 PM,81.0,72.0,74,30.00,10.0,SE,12.7,-,N/A,,Clear,130,2013-04-03 17:53:00
2:53 PM,81.0,72.0,74,29.99,10.0,SE,11.5,-,N/A,,Clear,130,2013-04-03 18:53:00
3:53 PM,81.0,72.0,74,29.98,10.0,ESE,12.7,-,N/A,,Clear,120,2013-04-03 19:53:00
4:53 PM,81.0,71.1,72,29.97,10.0,ESE,13.8,-,N/A,,Clear,110,2013-04-03 20:53:00
5:53 PM,80.1,71.1,74,29.96,10.0,East,15.0,27.6,N/A,,Clear,100,2013-04-03 21:53:00
6:53 PM,79.0,71.1,77,29.96,10.0,East,15.0,-,N/A,,Scattered Clouds,100,2013-04-03 22:53:00
7:53 PM,78.1,71.1,79,29.98,10.0,East,12.7,-,N/A,,Mostly Cloudy,100,2013-04-03 23:53:00
8:53 PM,78.1,71.1,79,30.01,10.0,East,13.8,-,N/A,,Overcast,90,2013-04-04 00:53:00
9:53 PM,77.0,71.1,82,30.03,10.0,ESE,10.4,-,N/A,,Scattered Clouds,110,2013-04-04 01:53:00
10:53 PM,77.0,71.1,82,30.04,10.0,ESE,10.4,-,N/A,,Clear,120,2013-04-04 02:53:00
11:53 PM,75.9,71.1,85,30.04,10.0,ESE,10.4,-,N/A,,Clear,120,2013-04-04 03:53:00